Location: Ladirat
(44.8151°N, 1.9702°E)
Time: 08:39:24
(UTC+00:00)

Cosmos 2322 Rocket - Pass Details

Date: 15 May 2026
Orbit: 831 x 850 km, 71.0° (Epoch: 6 June)

Event Time Altitude Azimuth Distance (km) Brightness Sun altitude
Rises 22:18:19 0° 327° (NNW) 3,408 6.8 -22.9°
Reaches altitude 10° 22:20:56 10° 319° (NW) 2,471 5.6 -23.1°
Maximum altitude 22:26:02 36° 255° (WSW) 1,318 3.2 -23.4°
Enters shadow 22:27:37 30° 222° (SW) 1,466 3.2 -23.5°
